AIX407 LBSF-LWSK

Flight info

Callsign AIX407
Flight time N/A
Altitude 18000
Route NAPET3T/27 NAPET T214 SIN
Aircraft A20N/M-SDE2E3FGHIRWXY/LB1

Departure

Time N/A
Airport Sofia Airport (LBSF)

Arrival

Time 2026-05-04 19:56
Airport Skopje International Airport (LWSK)
Time Latitude Longitude Altitude Speed Heading
2026-05-04 19:42 42.16007 22.73157 17385 ft 382 kts 237°
2026-05-04 19:42 42.14520 22.70193 17126 ft 381 kts 237°
2026-05-04 19:42 42.13038 22.67241 16865 ft 380 kts 237°
2026-05-04 19:42 42.11559 22.64297 16609 ft 379 kts 237°
2026-05-04 19:43 42.10081 22.61360 16357 ft 378 kts 237°
2026-05-04 19:43 42.08614 22.58416 16098 ft 377 kts 237°
2026-05-04 19:43 42.07187 22.55459 15849 ft 376 kts 238°
2026-05-04 19:43 42.05772 22.52496 15600 ft 376 kts 238°
2026-05-04 19:44 42.04379 22.49585 15358 ft 374 kts 238°
2026-05-04 19:44 42.02967 22.46647 15111 ft 373 kts 237°
2026-05-04 19:44 42.01554 22.43719 14861 ft 372 kts 237°
2026-05-04 19:44 42.00145 22.40806 14626 ft 371 kts 237°
2026-05-04 19:45 41.98857 22.37813 14390 ft 369 kts 246°
2026-05-04 19:45 41.97824 22.34653 14159 ft 369 kts 239°
2026-05-04 19:45 41.96257 22.31939 13933 ft 368 kts 229°
2026-05-04 19:45 41.94581 22.29378 13453 ft 369 kts 228°
2026-05-04 19:46 41.92887 22.26789 12836 ft 368 kts 228°
2026-05-04 19:46 41.91201 22.24208 12243 ft 366 kts 228°
2026-05-04 19:46 41.89526 22.21644 11654 ft 364 kts 228°
2026-05-04 19:46 41.87861 22.19092 11087 ft 362 kts 228°
2026-05-04 19:47 41.86206 22.16552 10517 ft 361 kts 228°
2026-05-04 19:47 41.84560 22.14023 9950 ft 359 kts 228°
2026-05-04 19:47 41.82925 22.11493 9355 ft 357 kts 231°
2026-05-04 19:47 41.81738 22.08639 8754 ft 355 kts 249°
2026-05-04 19:48 41.80950 22.05522 8170 ft 352 kts 253°
2026-05-04 19:48 41.80212 22.02408 7595 ft 350 kts 253°
2026-05-04 19:48 41.79483 21.99308 7029 ft 347 kts 256°
2026-05-04 19:48 41.79108 21.96136 6468 ft 343 kts 267°
2026-05-04 19:49 41.78933 21.92959 5898 ft 340 kts 267°
2026-05-04 19:49 41.78819 21.90871 5515 ft 338 kts 267°
2026-05-04 19:49 41.78647 21.87756 5101 ft 331 kts 267°
2026-05-04 19:49 41.78477 21.84715 4692 ft 323 kts 267°
2026-05-04 19:50 41.78310 21.81739 4282 ft 316 kts 267°
2026-05-04 19:50 41.78149 21.78849 4085 ft 304 kts 267°
2026-05-04 19:50 41.77989 21.76103 3997 ft 285 kts 267°
2026-05-04 19:50 41.77841 21.73574 3994 ft 260 kts 267°
2026-05-04 19:51 41.77776 21.71274 3994 ft 235 kts 279°
2026-05-04 19:51 41.78318 21.69445 3992 ft 200 kts 310°
2026-05-04 19:51 41.79339 21.68270 3994 ft 191 kts 333°
2026-05-04 19:51 41.80558 21.67577 3960 ft 190 kts 343°
2026-05-04 19:52 41.81819 21.67100 3770 ft 183 kts 347°
2026-05-04 19:52 41.83003 21.66701 3473 ft 169 kts 346°
2026-05-04 19:52 41.84106 21.66318 3222 ft 156 kts 346°
2026-05-04 19:52 41.85122 21.65967 2987 ft 145 kts 346°
2026-05-04 19:53 41.86048 21.65647 2792 ft 131 kts 346°
2026-05-04 19:53 41.86904 21.65351 2600 ft 127 kts 346°
2026-05-04 19:53 41.87789 21.65044 2410 ft 132 kts 346°
2026-05-04 19:53 41.88674 21.64738 2215 ft 132 kts 345°
2026-05-04 19:54 41.89568 21.64428 2015 ft 133 kts 345°
2026-05-04 19:54 41.90454 21.64121 1826 ft 133 kts 345°
2026-05-04 19:54 41.91348 21.63811 1630 ft 132 kts 345°
2026-05-04 19:54 41.92236 21.63504 1453 ft 131 kts 346°
2026-05-04 19:55 41.93118 21.63198 1265 ft 130 kts 346°
2026-05-04 19:55 41.93998 21.62885 1062 ft 130 kts 347°
2026-05-04 19:55 41.94878 21.62582 843 ft 129 kts 347°
2026-05-04 19:55 41.95740 21.62297 785 ft 115 kts 345°
2026-05-04 19:56 41.96292 21.62100 789 ft 35 kts 343°
2026-05-04 19:56 41.96477 21.62066 790 ft 21 kts 37°
2026-05-04 19:56 41.96516 21.62173 792 ft 1 kts 75°
2026-05-04 19:56 41.96517 21.62182 792 ft 1 kts 75°
2026-05-04 19:57 41.96519 21.62188 792 ft 0 kts 75°
2026-05-04 20:00 41.96523 21.62209 792 ft 4 kts 75°
2026-05-04 20:00 41.96524 21.62258 792 ft 7 kts 104°
2026-05-04 20:00 41.96476 21.62300 792 ft 11 kts 163°
2026-05-04 20:00 41.96390 21.62331 792 ft 15 kts 165°
2026-05-04 20:01 41.96275 21.62372 792 ft 19 kts 165°
2026-05-04 20:01 41.96136 21.62426 791 ft 18 kts 157°
2026-05-04 20:01 41.96129 21.62438 792 ft 1 kts 115°
2026-05-04 20:01 41.96129 21.62449 792 ft 2 kts 96°
2026-05-04 20:02 41.96127 21.62474 793 ft 4 kts 96°
2026-05-04 20:02 41.96114 21.62514 793 ft 5 kts 151°
2026-05-04 20:02 41.96100 21.62558 793 ft 7 kts 70°
2026-05-04 20:02 41.96107 21.62586 793 ft 0 kts 77°